Miscellaneous Local Product
Issued by NWS Hastings, NE

Home | Current Version | Previous Version | Graphics & Text | Print | Product List | Glossary On
Versions: 1 2 3 4 5 6 7 8 9 10 11 12 13 14 15 16 17 18 19 20 21 22 23 24 25 26 27 28 29 30 31 32 33 34 35 36 37 38 39 40 41 42 43 44 45 46 47 48 49 50
000
AXUS43 KGID 220502
MISGRI

GID CWA HOURLY WEATHER ROUNDUP
NATIONAL WEATHER SERVICE HASTINGS NE
1200 AM CDT MON SEP 22 2014

NOTE: "FAIR" INDICATES FEW OR NO CLOUDS BELOW 12,000 FEET WITH NO
SIGNIFICANT WEATHER AND/OR OBSTRUCTIONS TO VISIBILITY.

...SOUTH CENTRAL NEBRASKA...

CITY           SKY/WX    TMP DP  RH WIND       PRES   REMARKS
GRAND ISLAND   CLEAR     51  45  79 CALM      30.31R
HASTINGS       PTCLDY    52  45  77 E3        30.30S
KEARNEY        PTCLDY    54  43  66 CALM      30.31S
ORD            CLEAR     46  43  89 CALM      30.29S
YORK           CLEAR     50  48  93 CALM      30.31R
AURORA         CLEAR     50  45  83 CALM      30.30S
LEXINGTON      PTCLDY    49  45  87 CALM      30.31S
HOLDREGE       PTCLDY    51  44  75 CALM      30.31R
HEBRON         PTCLDY    48  45  87 CALM      30.29S

...NEBRASKA PANHANDLE...

CITY           SKY/WX    TMP DP  RH WIND       PRES   REMARKS
CHADRON        PTCLDY    60  40  47 S8        30.23F
ALLIANCE       MOCLDY    53  42  66 SE9       30.28F
SCOTTSBLUFF    MOCLDY    58  43  57 SE9       30.27F
SIDNEY         MOCLDY    60  41  49 SE9       30.31F

...WESTERN AND NORTH CENTRAL NEBRASKA...

CITY           SKY/WX    TMP DP  RH WIND       PRES   REMARKS
VALENTINE      PTCLDY    45  38  76 CALM      30.29S HAZE
AINSWORTH      CLEAR     45  39  81 S5        30.30R
ONEILL         CLEAR     49  48  95 CALM      30.30S
BROKEN BOW     PTCLDY    44  41  89 CALM      30.31S
IMPERIAL       CLOUDY    63  42  46 SE8       30.31F
NORTH PLATTE   PTCLDY    48  42  80 E7        30.30F
MCCOOK         MOCLDY    58  45  62 E5        30.31S

...EASTERN NEBRASKA...

CITY           SKY/WX    TMP DP  RH WIND       PRES   REMARKS
NORFOLK        CLEAR     48  45  89 W3        30.29R
SO SIOUX CITY  CLEAR     50  47  89 S3        30.27S
TEKAMAH        CLEAR     49  46  90 NW5       30.27R
COLUMBUS       CLEAR     46  43  87 CALM      30.30S
ALBION         CLEAR     46  42  88 CALM      30.30S
OMAHA EPPLEY   CLEAR     53  51  93 NW3       30.27S
OFFUTT AFB     CLEAR     49  49 100 CALM      30.27R
MILLARD        CLEAR     53  51  93 CALM      30.27R
LINCOLN        CLEAR     50  47  89 N3        30.29S
NEBRASKA CITY    N/A     57  42  56 N3        30.27S
BEATRICE       CLEAR     49  46  86 CALM      30.29S
FALLS CITY     CLEAR     54  50  86 NW3       30.26R

...NORTHERN KANSAS...

CITY           SKY/WX    TMP DP  RH WIND       PRES   REMARKS
GOODLAND       CLOUDY    60  43  53 SE12      30.34S
HILL CITY      MOCLDY    56  45  66 CALM      30.31S
NORTON         MOCLDY    55  37  50 CALM      30.31R
SMITH CENTER   CLEAR     54  43  66 E7        30.30S HAZE
BELOIT         CLEAR     52  46  82 CALM      30.28S
HAYS           PTCLDY    59  39  47 CALM      30.30S
RUSSELL        CLEAR     57  45  64 E7        30.29R
CONCORDIA      CLEAR     54  47  77 CALM      30.29R
SALINA         CLEAR     63  46  54 NE5       30.28S
TOPEKA         CLEAR     57  51  80 CALM      30.26S



USA.gov is the U.S. government's official web portal to all federal, state and local government web resources and services.